Weather History for Hinckley, MN

Change the Weather History Date:

Thursday, June 27, 2013

  Actual Average (KJMR) Record (KJMR)
Temperature  
Mean Temperature 70 °F -  
Max Temperature 82 °F 79 °F 97 °F (1934)
Min Temperature 59 °F 52 °F 39 °F (1992)
Cooling Degree Days 6    
Growing Degree Days 20 (Base 50)    
Moisture  
Dew Point 62 °F    
Average Humidity 73    
Maximum Humidity 100    
Minimum Humidity 42    
Precipitation  
Precipitation 0.09 in - - ()
Sea Level Pressure  
Sea Level Pressure 29.78 in    
Wind  
Wind Speed 4 mph (West)    
Max Wind Speed 22 mph    
Max Gust Speed 43 mph    
Visibility 10 miles    
Events Rain , Thunderstorm    
Averages and records for this station are not official NWS values.
T = Trace of Precipitation, MM = Missing Value Source: NWS Daily Summary

Daily Weather History Graph

Daily Weather History Graph

Search for Another Location

Airport:

Trip Planner

Search our weather history database for the weather conditions in past years. The results will help you decide how hot, cold, wet, or windy it might be!

Date:

Astronomy

Jun. 27, 2013 Rise Set
Actual Time 5:22 AM CDT 9:06 PM CDT
Civil Twilight 4:44 AM CDT 9:45 PM CDT
Nautical Twilight 3:52 AM CDT 10:36 PM CDT
Astronomical Twilight 2:40 AM CDT 11:48 PM CDT
Moon 11:44 PM CDT (6/27) 10:41 AM CDT (6/27)
Length of Visible Light 17h 00m
Length of Day
15h 43m
Waning Gibbous, 76% of the Moon is Illuminated
Jun 27
Waning Gibbous
Jun 29
Last Quarter
Jul 8
New
Jul 15
First Quarter
Jul 22
Full

Hourly Weather History & Observations

Time (CDT) Temp. Heat Index Dew Point Humidity Pressure Visibility Wind Dir Wind Speed Gust Speed Precip Events Conditions
12:19 AM 68.0 °F - 64.4 °F 88% 29.80 in 10.0 mi Calm Calm - N/A   Clear
12:39 AM 68.0 °F - 64.4 °F 88% 29.80 in 10.0 mi Calm Calm - N/A   Clear
12:59 AM 66.2 °F - 64.4 °F 94% 29.80 in 10.0 mi West 3.5 mph - N/A   Clear
1:19 AM 66.2 °F - 64.4 °F 94% 29.80 in 10.0 mi Calm Calm - N/A   Clear
1:39 AM 64.4 °F - 62.6 °F 94% 29.80 in 10.0 mi Calm Calm - N/A   Mostly Cloudy
1:59 AM 66.2 °F - 64.4 °F 94% 29.80 in 10.0 mi Calm Calm - N/A   Overcast
2:20 AM 64.4 °F - 64.4 °F 100% 29.79 in 10.0 mi Calm Calm - N/A   Scattered Clouds
2:39 AM 62.6 °F - 62.6 °F 100% 29.79 in 10.0 mi Calm Calm - N/A   Clear
2:59 AM 62.6 °F - 62.6 °F 100% 29.79 in 10.0 mi Calm Calm - N/A   Scattered Clouds
3:20 AM 62.6 °F - 62.6 °F 100% 29.79 in 10.0 mi Calm Calm - N/A   Scattered Clouds
3:39 AM 62.6 °F - 62.6 °F 100% 29.79 in 10.0 mi Calm Calm - N/A   Mostly Cloudy
3:59 AM 62.6 °F - 62.6 °F 100% 29.79 in 10.0 mi Calm Calm - N/A   Overcast
4:20 AM 62.6 °F - 62.6 °F 100% 29.79 in 10.0 mi Calm Calm - N/A   Mostly Cloudy
4:39 AM 62.6 °F - 62.6 °F 100% 29.79 in 10.0 mi Calm Calm - N/A   Mostly Cloudy
4:59 AM 62.6 °F - 60.8 °F 94% 29.79 in 10.0 mi Calm Calm - N/A   Mostly Cloudy
5:20 AM 62.6 °F - 62.6 °F 100% 29.79 in 10.0 mi Calm Calm - N/A   Overcast
5:39 AM 62.6 °F - 62.6 °F 100% 29.79 in 10.0 mi Calm Calm - N/A   Mostly Cloudy
5:59 AM 62.6 °F - 62.6 °F 100% 29.79 in 10.0 mi Calm Calm - N/A   Clear
6:19 AM 62.6 °F - 62.6 °F 100% 29.79 in 10.0 mi Calm Calm - N/A   Scattered Clouds
6:39 AM 64.4 °F - 64.4 °F 100% 29.79 in 10.0 mi Calm Calm - N/A   Mostly Cloudy
7:00 AM 68.0 °F - 64.4 °F 88% 29.79 in 10.0 mi South 3.5 mph - N/A   Mostly Cloudy
7:19 AM 68.0 °F - 64.4 °F 88% 29.78 in 10.0 mi South 3.5 mph - N/A   Scattered Clouds
7:39 AM 69.8 °F - 66.2 °F 88% 29.79 in 10.0 mi WSW 3.5 mph - N/A   Scattered Clouds
7:59 AM 69.8 °F - 66.2 °F 88% 29.80 in 10.0 mi West 5.8 mph - N/A   Mostly Cloudy
8:19 AM 71.6 °F - 66.2 °F 83% 29.79 in 10.0 mi West 4.6 mph - N/A   Mostly Cloudy
8:40 AM 71.6 °F - 64.4 °F 78% 29.79 in 10.0 mi West 8.1 mph - N/A   Clear
8:59 AM 73.4 °F - 66.2 °F 78% 29.79 in 10.0 mi WNW 5.8 mph - N/A   Scattered Clouds
9:19 AM 75.2 °F - 68.0 °F 78% 29.79 in 10.0 mi West 8.1 mph - N/A   Scattered Clouds
9:40 AM 77.0 °F - 68.0 °F 74% 29.78 in 10.0 mi West 8.1 mph - N/A   Clear
9:59 AM 77.0 °F - 66.2 °F 69% 29.78 in 10.0 mi West 8.1 mph - N/A   Clear
10:20 AM 78.8 °F - 64.4 °F 61% 29.78 in 10.0 mi WNW 8.1 mph - N/A   Clear
10:40 AM 78.8 °F - 64.4 °F 61% 29.77 in 10.0 mi West 8.1 mph - N/A   Clear
10:59 AM 80.6 °F 81.8 °F 62.6 °F 54% 29.77 in 10.0 mi WNW 8.1 mph - N/A   Clear
11:20 AM 80.6 °F 81.5 °F 60.8 °F 51% 29.77 in 10.0 mi West 13.8 mph 20.7 mph N/A   Clear
11:40 AM 80.6 °F 81.5 °F 60.8 °F 51% 29.77 in 10.0 mi West 15.0 mph 19.6 mph N/A   Clear
11:59 AM 80.6 °F 81.5 °F 60.8 °F 51% 29.77 in 10.0 mi West 12.7 mph 21.9 mph N/A   Clear
12:20 PM 80.6 °F 81.5 °F 60.8 °F 51% 29.78 in 10.0 mi West 11.5 mph 21.9 mph N/A   Clear
12:39 PM 80.6 °F 81.5 °F 60.8 °F 51% 29.78 in 10.0 mi WNW 13.8 mph 21.9 mph N/A   Scattered Clouds
12:59 PM 80.6 °F 81.8 °F 62.6 °F 54% 29.78 in 10.0 mi West 17.3 mph 21.9 mph N/A   Scattered Clouds
1:20 PM 80.6 °F 81.5 °F 60.8 °F 51% 29.78 in 10.0 mi West 10.4 mph 19.6 mph N/A   Scattered Clouds
1:39 PM 80.6 °F 81.5 °F 60.8 °F 51% 29.78 in 10.0 mi West 13.8 mph 23.0 mph N/A   Scattered Clouds
2:00 PM 80.6 °F 81.5 °F 60.8 °F 51% 29.78 in 10.0 mi West 13.8 mph 24.2 mph N/A   Scattered Clouds
2:20 PM 80.6 °F 81.5 °F 60.8 °F 51% 29.78 in 10.0 mi West 18.4 mph 25.3 mph N/A   Scattered Clouds
2:39 PM 80.6 °F 81.5 °F 60.8 °F 51% 29.78 in 10.0 mi West 12.7 mph 23.0 mph N/A   Scattered Clouds
3:00 PM 82.4 °F 82.9 °F 60.8 °F 48% 29.78 in 10.0 mi West 15.0 mph 24.2 mph N/A   Scattered Clouds
3:20 PM 82.4 °F 82.9 °F 60.8 °F 48% 29.78 in 10.0 mi West 16.1 mph 27.6 mph N/A   Scattered Clouds
3:39 PM 80.6 °F 80.8 °F 57.2 °F 45% 29.79 in 10.0 mi WNW 16.1 mph 23.0 mph N/A   Scattered Clouds
4:00 PM 82.4 °F 82.0 °F 57.2 °F 42% 29.78 in 10.0 mi WNW 12.7 mph 24.2 mph N/A   Scattered Clouds
4:19 PM 80.6 °F 81.1 °F 59.0 °F 48% 29.78 in 10.0 mi WNW 9.2 mph 21.9 mph N/A   Scattered Clouds
4:39 PM 82.4 °F 82.5 °F 59.0 °F 45% 29.78 in 10.0 mi WNW 11.5 mph 23.0 mph N/A   Scattered Clouds
5:00 PM 82.4 °F 82.5 °F 59.0 °F 45% 29.78 in 10.0 mi WNW 10.4 mph 17.3 mph N/A   Scattered Clouds
5:19 PM 80.6 °F 80.8 °F 57.2 °F 45% 29.78 in 10.0 mi WNW 9.2 mph 28.8 mph N/A   Scattered Clouds
5:39 PM 82.4 °F 82.0 °F 57.2 °F 42% 29.78 in 10.0 mi West 17.3 mph 25.3 mph N/A   Scattered Clouds
6:00 PM 80.6 °F 80.8 °F 57.2 °F 45% 29.78 in 10.0 mi West 10.4 mph 23.0 mph N/A   Scattered Clouds
6:19 PM 80.6 °F 80.8 °F 57.2 °F 45% 29.78 in 10.0 mi West 11.5 mph 20.7 mph N/A   Scattered Clouds
6:40 PM 80.6 °F 80.8 °F 57.2 °F 45% 29.77 in 10.0 mi West 9.2 mph 17.3 mph N/A   Scattered Clouds
7:00 PM 80.6 °F 80.8 °F 57.2 °F 45% 29.78 in 10.0 mi West 10.4 mph 18.4 mph N/A   Clear
7:19 PM 80.6 °F 80.8 °F 57.2 °F 45% 29.77 in 10.0 mi West 10.4 mph 19.6 mph N/A   Clear
7:40 PM 78.8 °F - 59.0 °F 51% 29.77 in 10.0 mi West 10.4 mph - N/A   Scattered Clouds
8:00 PM 78.8 °F - 59.0 °F 51% 29.77 in 10.0 mi West 4.6 mph - N/A   Clear
8:19 PM 77.0 °F - 59.0 °F 54% 29.77 in 10.0 mi West 4.6 mph - N/A   Clear
8:40 PM 77.0 °F - 59.0 °F 54% 29.77 in 10.0 mi West 3.5 mph - N/A   Mostly Cloudy
9:00 PM 64.4 °F - 59.0 °F 83% 29.82 in 1.5 mi North 21.9 mph 42.6 mph 0.03 in Rain , Thunderstorm Heavy Thunderstorms and Rain
9:19 PM 62.6 °F - 60.8 °F 94% 29.79 in 10.0 mi Calm Calm - 0.09 in Rain , Thunderstorm Light Thunderstorms and Rain
9:40 PM 62.6 °F - 60.8 °F 94% 29.80 in 10.0 mi Calm Calm - 0.09 in   Overcast
10:00 PM 62.6 °F - 60.8 °F 94% 29.81 in 10.0 mi West 3.5 mph - N/A Thunderstorm Overcast
10:19 PM 62.6 °F - 60.8 °F 94% 29.79 in 10.0 mi SSW 4.6 mph - N/A Rain Light Rain
10:40 PM 62.6 °F - 60.8 °F 94% 29.78 in 10.0 mi Calm Calm - N/A   Scattered Clouds
11:00 PM 60.8 °F - 60.8 °F 100% 29.79 in 10.0 mi Calm Calm - N/A   Clear
11:20 PM 60.8 °F - 59.0 °F 94% 29.78 in 10.0 mi Calm Calm - N/A   Clear
11:40 PM 59.0 °F - 59.0 °F 100% 29.78 in 2.5 mi WSW 4.6 mph - N/A   Clear
11:59 PM 59.0 °F - 59.0 °F 100% 29.78 in 10.0 mi West 3.5 mph - N/A   Clear